SHIYAN 12 02 (SY-12 02)

Last updated on Thu Nov 21 2024 00:02:44 GMT+0000 (Coordinated Universal Time)

1 50322U 21129B 24325.75547674 .00000106 00000+0 00000+0 0 9993 2 50322 2.1899 88.2741 0004629 172.3221 92.3457 1.00087363 10764
UTC large
Height (km)
Speed (km/s)
/
Latitude / Longitude
Inclination (degrees)
Orbital Period (minutes)
Azimuth
Elevation
Range (km)
Doppler Factor

Next 0 passes for location: London (51.5072 / 0.1276)

Sorry there are no passes over London.